sat.trackr.live / text

‹ back to catalog

UNKNOWN

NORAD 82597

UNKNOWN UNKNOWN UNKNOWN

§ Identity

Operator
Country
Launch date
Launch site
Launch vehicle
Mass (kg)
RCS (m²)

External: N2YO · Heavens-Above

§ Orbital elements

Epoch: 2026-05-24T02:51:10.723968Z

Period
100.25 min
Inclination
66.7691°
Eccentricity
0.0093303
Mean motion
14.36360985 rev/d
Perigee alt
703.8 km
Apogee alt
837.2 km
Semi-major
7,148.7 km
B*
3.0235e-4
RAAN
80.1806°
Arg perigee
193.4132°
Mean anomaly
166.4489°
Rev number
65,229

§ Raw data

UNKNOWN1 82597U          26144.11887412  .00000843  00000+0  30235-3 0  99902 82597  66.7691  80.1806 0093303 193.4132 166.4489 14.36360985652299

JSON: /api/v1/satellites/82597 · /tle

For live sub-satellite position, see the globe view (requires WebGL).

§ Visibility from observer

Set your observer location to see the next 7 days of passes ≥ 10°. The values pass through the URL so the page stays shareable.

No JS? Fill the form by hand. The geolocation button needs JavaScript.